Location: Bílinka
(49.3579°N, 14.3767°E)
Time: 00:48:14
(UTC+00:00)

FENGYUN 1C DEB - Pass Details

Date: 26 February 2024
Orbit: 849 x 875 km, 98.8° (Epoch: 23 April)

Event Time Altitude Azimuth Distance (km) Brightness Sun altitude
Rises 17:07:06 0° 136° (SE) 3,440 ? -5.3°
Reaches altitude 10° 17:09:37 10° 128° (SE) 2,511 ? -5.7°
Maximum altitude 17:14:40 36° 63° (ENE) 1,346 ? -6.5°
Drops below altitude 10° 17:19:46 10° 359° (N) 2,537 ? -7.3°
Sets 17:22:19 0° 351° (N) 3,481 ? -7.7°
